ASTRA 1KR

Last updated on Thu Oct 30 2025 00:02:47 GMT+0000 (Coordinated Universal Time)

1 29055U 06012A 25302.26083336 .00000130 00000+0 00000+0 0 9995 2 29055 0.0475 59.2825 0005988 167.7279 283.9690 1.00273145 43387
UTC large
Height (km)
Speed (km/s)
/
Latitude / Longitude
Inclination (degrees)
Orbital Period (minutes)
Azimuth
Elevation
Range (km)
Doppler Factor

Next 0 passes for location: London (51.5072 / 0.1276)

Sorry there are no passes over London.